Vertical_Velocity
3 3 2 1 0 -0 0 0 0 0 -0 -1 -1 -2 -3 -4 -4 -4 -4 -3 -2 -2 -3 -4 -5 -5 -4 -4 -3 -2 -2 -3 -2 -1 1 2 1 0 -2 -4 -5 -5 -5 -2 0 2 3 3 2 1 0 -0 -0 1 2 1 1 1 0 0 0 0 1 0 0 -0 0 3 4 4 0 0 -0 -0 1 1 2 2 1 1 1 1 1 1 1 0 0 0 0 0 1 1 2 2 3 3 2 1 1 0 0 0 0
5 5 4 3 2 2 1 1 1 1 1 0 -0 -1 -2 -3 -3 -3 -3 -2 -2 -2 -3 -4 -5 -5 -5 -4 -4 -3 -3 -3 -2 0 3 2 0 -2 -4 -5 -6 -5 -4 -2 0 2 2 2 2 1 0 -1 -1 0 2 1 1 0 0 0 0 1 1 1 0 0 0 2 4 4 1 1 0 -0 0 1 1 1 0 0 0 0 1 0 0 0 0 0 0 0 0 1 2 2 2 2 1 0 1 1 1 1 0
6 7 6 6 5 4 3 3 3 2 2 2 1 -0 -1 -1 -2 -2 -2 -2 -2 -3 -3 -4 -4 -4 -5 -5 -4 -4 -4 -3 -1 2 4 1 -2 -4 -6 -6 -6 -5 -3 -1 1 2 1 1 1 1 0 -1 -1 -1 1 1 1 0 0 0 0 1 1 1 1 1 0 2 3 4 1 1 0 -0 1 1 1 0 -1 -1 -1 -1 -0 -0 -0 -0 -0 -0 -0 0 0 1 2 2 1 1 1 1 1 2 2 1 2
3 4 5 5 5 5 5 5 5 4 4 3 2 1 0 0 0 0 -0 -1 -2 -2 -3 -3 -3 -4 -4 -4 -4 -5 -5 -3 -0 2 2 -1 -4 -6 -7 -7 -6 -4 -2 0 1 1 0 1 1 1 1 -2 -2 -2 0 1 1 0 -0 -0 -0 -0 0 1 1 1 1 1 2 2 1 1 0 0 1 1 1 0 -1 -2 -2 -1 -1 -1 -1 -1 -1 -1 -1 -0 0 1 2 2 1 1 2 2 1 2 2 3 5
-1 -1 0 1 1 2 3 4 4 5 5 5 4 3 2 2 2 2 1 0 -1 -2 -2 -2 -3 -3 -3 -3 -3 -4 -4 -2 -0 1 -1 -4 -6 -6 -7 -6 -5 -3 -1 0 0 0 -0 0 1 2 1 -2 -3 -3 -1 0 1 0 -0 -0 -1 -1 -1 -1 -0 0 1 1 1 0 -0 1 1 2 2 2 1 1 1 -1 -2 -2 -0 -0 -1 -1 -1 -1 -1 -0 0 1 1 2 2 1 1 0 -0 1 2 2 5
-3 -3 -3 -3 -2 -2 -2 -1 0 2 3 3 4 4 4 4 5 4 3 1 0 -1 -1 -2 -2 -2 -2 -2 -2 -2 -2 -1 -0 -2 -4 -6 -6 -6 -6 -5 -4 -3 -1 -0 -0 -0 -1 0 2 2 0 -2 -3 -3 -2 -0 1 1 -0 -0 -1 -1 -2 -2 -2 -0 1 2 2 1 0 1 1 2 3 3 2 -0 1 0 -1 -2 -0 2 2 0 -1 -1 -1 -1 0 1 2 2 3 1 1 1 2 1 1 2 3
-4 -4 -4 -3 -3 -3 -3 -3 -3 -2 -2 -1 -0 1 2 4 5 5 4 3 2 1 0 -1 -1 -2 -2 -2 -1 -1 -0 1 -0 -3 -5 -6 -6 -6 -6 -5 -4 -3 -2 -1 -0 -0 -1 1 2 2 -0 -3 -4 -4 -3 -1 0 1 1 0 -1 -2 -2 -2 -1 1 3 4 4 3 2 2 2 2 3 4 2 -1 -1 -1 -2 -1 -1 1 4 4 2 -0 -1 -1 0 1 1 2 4 -0 -0 2 4 3 2 1 2
-4 -3 -4 -4 -3 -3 -3 -3 -3 -3 -3 -3 -3 -2 -1 0 2 4 4 3 3 3 3 1 -0 -1 -2 -2 -1 -1 1 2 0 -2 -5 -5 -6 -7 -7 -6 -5 -4 -3 -1 -0 -0 -1 0 2 2 -1 -3 -4 -4 -3 -1 0 1 1 1 -0 -1 -1 -1 -1 1 3 5 5 5 4 3 2 2 3 2 -0 -2 -2 -2 -1 0 1 1 1 2 4 2 1 1 -0 0 1 2 3 -1 -1 1 3 3 2 1 1
-3 -3 -3 -3 -3 -3 -3 -3 -3 -3 -3 -4 -4 -3 -3 -2 -1 0 1 1 2 3 3 3 2 1 0 -1 -1 -0 1 2 0 -2 -3 -4 -5 -6 -7 -6 -5 -4 -3 -1 -0 -0 -1 0 1 1 -1 -2 -4 -5 -3 -1 -0 0 1 1 0 -0 -1 -1 -1 -0 1 3 4 5 5 4 4 3 3 1 -1 -2 -2 -2 -0 1 2 3 1 -1 -0 1 3 4 1 0 0 1 2 -1 -1 0 1 3 3 2 1
-4 -4 -4 -4 -4 -3 -3 -3 -3 -3 -3 -3 -4 -3 -3 -2 -2 -1 -1 -1 -0 0 1 2 3 3 3 1 0 0 1 1 -0 -2 -2 -2 -3 -4 -5 -6 -6 -5 -3 -2 -1 -1 -1 0 1 1 -1 -2 -4 -5 -3 -2 -1 0 0 1 1 0 -1 -1 -1 -1 -0 1 2 3 3 5 5 4 3 1 -0 -1 -2 -1 -0 1 3 3 1 -0 0 2 3 3 2 0 -1 -1 0 0 0 1 1 2 3 3 1
-5 -5 -5 -4 -4 -4 -4 -4 -3 -3 -3 -3 -3 -3 -3 -2 -2 -1 -1 -1 -1 -1 -1 -0 1 3 4 4 3 2 2 1 -1 -2 -2 -2 -2 -3 -3 -4 -5 -5 -4 -2 -2 -1 -1 0 1 1 0 -2 -3 -4 -3 -2 -1 -0 -0 1 1 0 -1 -1 -0 -0 -0 -1 -0 1 2 3 4 4 4 3 1 -0 -0 0 1 1 2 2 0 -1 -1 0 1 1 2 1 -0 -1 -0 0 0 0 0 1 2 3 3
-6 -6 -5 -5 -5 -5 -5 -5 -4 -4 -4 -3 -4 -4 -3 -3 -2 -2 -1 -1 -1 -2 -2 -1 -0 1 2 3 4 5 4 2 -0 -2 -2 -2 -2 -2 -2 -3 -4 -4 -4 -3 -2 -2 -1 0 0 0 1 -2 -3 -3 -3 -3 -2 -1 -1 0 1 0 -1 -1 -0 0 -0 -1 -1 -0 2 2 3 3 4 4 3 2 2 2 1 1 1 1 1 -0 -1 -1 -0 0 1 0 -0 -1 -0 0 0 0 0 1 3 4 2
-6 -6 -5 -5 -5 -5 -5 -5 -5 -4 -4 -4 -4 -4 -4 -4 -3 -2 -2 -1 -1 -1 -1 -1 -1 -0 0 2 3 5 5 3 1 -1 -2 -2 -2 -2 -1 -2 -2 -3 -3 -3 -3 -2 -2 -0 -0 -0 0 -2 -2 -1 -3 -2 -2 -3 -2 -1 -0 -0 -0 -0 0 0 -1 -2 -2 -0 2 3 3 3 3 3 3 3 2 3 3 3 1 1 0 -0 -0 -0 -1 -1 -0 -0 -0 -0 0 0 0 0 0 1 2 2 1
-5 -5 -5 -5 -5 -4 -4 -4 -4 -4 -4 -4 -4 -3 -4 -4 -4 -3 -3 -3 -2 -2 -1 -1 -1 -0 -0 1 2 4 5 4 3 2 -0 -1 -2 -2 -1 -1 -1 -1 -2 -3 -3 -3 -2 -1 -1 -0 -0 -1 -1 -1 -2 -1 -2 -3 -3 -2 -2 -1 -0 0 0 -0 -1 -2 -1 0 2 3 4 4 3 2 2 2 3 3 4 4 3 2 -0 -1 -1 -1 -1 -1 -0 -0 0 0 0 0 1 0 -0 0 1 1 1
-4 -4 -4 -4 -4 -4 -3 -3 -3 -4 -4 -4 -3 -3 -3 -3 -3 -3 -3 -3 -3 -3 -2 -2 -1 -0 -0 0 2 3 4 4 4 3 2 0 -1 -2 -1 -1 -1 -1 -1 -2 -2 -3 -3 -2 -1 -1 -1 -1 -1 -1 -0 -1 -2 -3 -4 -4 -3 -1 -0 0 -0 -1 -1 -1 -0 0 2 3 4 4 3 1 0 0 2 1 2 2 4 3 1 -1 -1 -1 -0 -0 0 1 3 3 2 1 1 0 0 -0 -0 0 2
-3 -3 -3 -3 -3 -3 -3 -3 -3 -3 -3 -3 -3 -3 -2 -2 -2 -2 -3 -3 -3 -4 -3 -3 -2 -1 -1 0 1 2 3 3 3 3 3 2 1 -0 -1 -1 -1 -0 -0 -1 -2 -2 -2 -2 -1 -1 -1 -1 -1 -1 1 -0 -1 -2 -4 -5 -4 -2 -1 0 -0 -1 -0 0 0 0 1 2 4 4 3 1 0 -0 -0 -0 -0 1 2 2 2 1 -0 -0 0 0 1 3 4 5 4 3 1 0 -0 -0 -0 0 2
-2 -2 -2 -2 -2 -2 -2 -2 -2 -3 -3 -3 -3 -3 -3 -2 -2 -2 -2 -2 -3 -3 -3 -3 -3 -2 -2 -1 0 2 3 3 3 3 3 3 2 1 0 -1 -1 -1 -0 -0 -1 -1 -2 -2 -2 -1 -1 -0 -1 -1 1 0 -0 -2 -4 -5 -4 -3 -1 -1 0 0 1 1 0 0 1 3 4 4 3 1 0 -0 -1 -1 -1 -0 1 2 2 2 2 1 0 1 1 1 1 1 2 4 2 1 -0 -0 -0 0 1
-1 -1 -1 -2 -2 -2 -2 -2 -2 -2 -2 -2 -3 -3 -3 -3 -2 -2 -2 -2 -2 -2 -2 -3 -3 -3 -3 -2 -1 0 2 3 3 3 3 3 3 2 2 0 -0 -1 -1 -1 -0 -0 -1 -1 -2 -2 -1 -1 -1 -1 0 0 0 -1 -3 -4 -5 -4 -2 -1 0 1 1 -0 -1 -1 1 3 4 4 2 1 1 0 -0 -1 -1 -1 0 1 2 2 3 2 1 1 1 0 0 0 0 2 3 2 2 0 0 0 0
-0 -0 -1 -1 -2 -2 -1 -1 -1 -2 -2 -2 -2 -2 -3 -3 -3 -2 -2 -2 -2 -2 -2 -2 -2 -2 -3 -3 -2 -1 0 1 2 3 3 3 3 3 3 2 1 -0 -1 -1 -1 -0 -0 -1 -1 -2 -1 -1 -1 -1 0 1 0 -1 -2 -4 -4 -4 -3 -1 0 0 -1 -2 -2 -1 2 3 4 4 2 2 1 1 0 -1 -1 -1 0 1 2 2 3 2 2 2 1 0 0 0 -0 1 3 4 4 3 2 0 0
0 0 -0 -1 -2 -2 -2 -2 -2 -2 -2 -2 -2 -2 -3 -3 -3 -3 -3 -2 -2 -2 -2 -1 -1 -1 -2 -2 -2 -2 -2 0 1 2 3 3 3 3 3 3 2 1 -1 -1 -1 -0 -1 -0 -1 -1 -1 -2 -2 -1 0 0 0 0 -1 -3 -4 -4 -3 -2 -1 -1 -2 -2 -2 0 2 4 5 4 3 2 1 1 0 -0 -1 -0 0 1 1 1 2 2 3 3 2 2 2 1 -1 0 2 3 4 6 4 1 1
0 -0 -0 -1 -2 -2 -3 -3 -3 -3 -3 -4 -3 -3 -4 -4 -4 -4 -4 -3 -3 -4 -3 -2 -2 -1 -1 -2 -2 -2 -2 -1 0 1 2 3 3 3 4 3 3 2 0 -1 -1 -1 -2 -0 -0 -1 -1 -2 -1 -1 -1 -0 1 1 -1 -2 -3 -4 -3 -2 -2 -2 -2 -2 -1 1 2 4 5 4 2 1 1 1 0 -0 -0 -0 0 1 1 1 1 2 2 2 2 2 2 2 0 -1 0 3 4 7 7 5 3
0 -1 -1 -1 -2 -3 -3 -4 -4 -4 -5 -5 -5 -5 -7 -4 -4 -4 -5 -3 -4 -6 -5 -4 -3 -3 -2 -2 -2 -2 -3 -2 -1 0 1 2 2 3 3 3 4 3 2 1 -1 -2 -2 -0 -0 -0 0 -1 -1 -1 -1 -0 0 0 -0 -1 -2 -3 -3 -3 -3 -3 -2 -1 -1 0 2 2 3 3 2 2 2 2 1 -0 -1 -1 -0 -0 0 0 0 1 1 1 2 2 2 2 2 1 1 2 4 7 8 8 5
0 -0 -2 -1 -2 -4 -4 -4 -5 -6 -6 -6 -6 -7 -10 -5 -5 -5 -6 -4 -5 -6 -6 -6 -6 -6 -4 -3 -3 -3 -4 -2 -1 -1 -0 1 1 2 2 2 3 4 3 3 1 -1 -1 -1 -1 -0 1 0 0 -0 -0 -1 -1 -0 -0 -0 -1 -2 -3 -3 -3 -3 -1 -1 -1 -0 0 1 2 3 2 2 2 2 1 -0 -1 -1 -1 -1 -0 -0 0 0 0 1 2 2 2 2 2 2 2 2 3 6 8 8 7
-1 -1 -4 -1 -2 -4 -5 -3 -5 -7 -6 -6 -7 -8 -10 -7 -6 -6 -7 -5 -5 -6 -7 -7 -7 -8 -6 -5 -5 -5 -3 -3 -3 -2 -0 1 1 1 2 1 2 3 3 4 3 1 0 -1 -1 -0 0 1 1 1 0 -1 -1 -1 -1 -0 -0 -1 -2 -3 -3 -3 -1 -1 -1 -0 -0 1 2 3 3 3 2 2 1 -1 -2 -2 -1 -1 0 0 0 0 0 0 2 2 2 2 1 2 2 2 3 5 7 8 9
-2 -2 -5 -1 -1 -3 -5 -1 -3 -6 -4 -5 -6 -8 -9 -7 -6 -6 -6 -5 -5 -6 -7 -6 -7 -8 -6 -7 -7 -7 -4 -5 -5 -3 -1 -0 0 1 1 1 1 1 2 4 4 3 2 -1 -1 -1 -1 1 2 2 2 1 -1 -1 -1 -0 0 -0 -2 -3 -3 -3 -2 -1 -1 -0 -1 0 1 2 3 3 2 1 1 -1 -1 -1 -1 1 1 1 0 -0 -0 -0 1 1 2 2 1 1 1 2 2 4 5 6 8
-3 -4 -6 -2 -2 -4 -4 -1 -2 -3 -2 -3 -4 -5 -8 -7 -6 -5 -6 -4 -4 -4 -6 -6 -6 -6 -7 -8 -8 -7 -6 -7 -6 -5 -3 -2 -1 0 1 1 0 -0 1 3 4 4 4 1 -0 -1 -2 -0 1 2 3 2 1 -1 -2 -1 -0 -0 -1 -2 -2 -2 -2 -1 -1 -1 -1 -0 1 2 3 2 1 1 2 1 0 -0 1 2 2 1 -1 -1 -1 0 1 1 1 1 1 1 2 2 2 4 6 6 6
-4 -5 -6 -4 -4 -5 -3 -3 -2 -2 -3 -2 -2 -4 -6 -6 -5 -4 -4 -4 -3 -2 -5 -5 -4 -4 -7 -6 -6 -6 -8 -8 -7 -6 -5 -4 -3 -1 1 1 -0 -1 0 2 3 4 5 3 1 -0 -2 -2 -0 2 3 4 2 -0 -2 -2 -1 -0 -0 -1 -1 -2 -2 -2 -1 -1 -0 0 1 2 2 2 2 2 3 2 1 1 1 0 -0 -1 -2 -2 -2 -1 0 1 1 1 1 1 2 2 3 3 5 6 6
-5 -5 -5 -6 -6 -5 -4 -4 -3 -3 -4 -2 -2 -4 -4 -3 -4 -4 -2 -3 -2 -1 -3 -4 -3 -3 -5 -4 -4 -5 -8 -7 -7 -7 -6 -6 -5 -3 -1 -0 -1 -1 -0 0 3 4 4 4 3 1 -2 -2 -1 -0 2 4 3 1 -1 -2 -2 -1 -0 -0 -0 -1 -2 -2 -1 -1 -0 0 1 2 3 3 3 3 3 3 1 -0 -1 -2 -3 -3 -3 -2 -1 -1 -1 -1 0 1 1 1 2 3 3 2 3 4 6
-6 -5 -5 -8 -6 -4 -6 -5 -4 -3 -5 -1 -3 -5 -4 -1 -3 -5 -2 -2 -2 -2 -2 -3 -2 -2 -3 -3 -3 -3 -6 -5 -6 -7 -7 -6 -6 -6 -3 -2 -1 -1 -1 0 2 4 3 4 3 2 -0 -1 -2 -2 1 3 4 2 0 -2 -2 -2 -1 -0 -0 -0 -1 -1 -1 -1 -0 0 1 2 3 4 4 3 2 2 -0 -2 -4 -5 -4 -3 -1 -0 0 -0 -1 -0 0 1 1 1 1 2 3 2 3 4 7
-6 -4 -4 -8 -6 -3 -6 -6 -5 -3 -4 -2 -3 -5 -4 -1 -3 -6 -3 -1 -1 -2 -2 -2 -2 -2 -2 -3 -2 -2 -4 -3 -3 -5 -7 -5 -6 -7 -4 -3 -3 -3 -1 0 1 2 3 4 3 2 1 -1 -2 -2 0 2 3 3 2 -0 -2 -2 -2 -1 -0 0 -0 -1 -1 -1 -1 -1 0 2 3 3 3 2 1 0 -1 -2 -3 -3 -2 -1 1 1 1 0 -0 1 1 2 2 2 2 2 3 2 3 6 8
-5 -4 -4 -6 -5 -4 -4 -5 -5 -5 -2 -3 -4 -5 -3 -2 -4 -7 -4 -1 -2 -3 -1 -1 -1 -2 -3 -2 -2 -2 -3 -0 -2 -5 -5 -3 -5 -7 -5 -5 -5 -4 -1 -2 -1 1 4 3 2 2 2 -0 -1 -1 -1 0 2 4 3 1 -1 -2 -3 -2 -1 0 0 -0 -1 -1 -2 -1 -0 1 2 1 0 -0 -0 0 0 -0 -1 -1 0 1 1 1 0 0 1 1 1 2 2 3 3 3 4 3 3 5 9
-5 -4 -5 -4 -5 -5 -4 -5 -6 -6 -2 -4 -5 -6 -3 -2 -5 -7 -3 -2 -3 -4 -1 -1 -1 -2 -2 -2 -3 -3 -1 -0 -3 -5 -2 -1 -3 -5 -5 -5 -5 -4 -3 -3 -0 2 2 2 2 2 2 1 0 -1 -3 -0 2 3 2 2 0 -2 -3 -3 -2 -0 0 0 -0 -1 -2 -1 -0 0 -0 -1 -1 -0 0 1 2 1 0 -0 -1 -1 -1 -1 -1 0 2 2 2 2 2 3 4 4 5 5 4 5 8
-5 -4 -5 -4 -5 -5 -5 -6 -6 -5 -4 -5 -6 -6 -4 -4 -5 -6 -4 -4 -4 -4 -2 -2 -2 -2 -0 -2 -3 -2 1 -3 -4 -3 -0 0 -2 -4 -4 -3 -4 -5 -5 -2 -0 -0 -1 2 3 2 1 1 0 -1 -1 0 1 1 2 2 1 -1 -3 -3 -3 -1 0 0 -0 -1 -1 -1 -1 -0 -1 1 1 2 2 3 2 1 -0 -1 -2 -2 -1 -1 0 2 3 2 2 2 2 2 2 4 5 5 5 5 6
-6 -6 -5 -5 -6 -5 -5 -6 -6 -5 -5 -6 -6 -6 -5 -5 -6 -5 -4 -5 -4 -3 -4 -3 -3 -2 -0 -1 -2 -1 -0 -4 -4 -2 -1 -1 -2 -3 -1 -1 -4 -6 -3 -1 -2 -3 0 3 2 1 0 2 1 0 1 -0 -0 0 2 2 1 -0 -2 -3 -3 -2 -1 -0 0 -0 -1 -1 -0 0 1 3 4 4 4 3 2 1 0 -0 -1 -1 -0 1 2 3 3 2 2 2 2 1 1 2 4 5 6 6 4
-5 -6 -6 -6 -6 -6 -6 -6 -6 -6 -6 -6 -6 -6 -6 -6 -6 -5 -5 -4 -4 -3 -4 -3 -3 -3 -2 -1 -1 -2 -1 -3 -2 -2 -3 -2 -1 -1 1 -2 -4 -4 0 -3 -4 -2 3 2 -0 -1 2 3 2 1 2 -0 -1 0 1 1 1 0 -0 -2 -3 -3 -2 -1 -0 0 -0 -0 -0 0 1 3 3 4 3 2 2 1 1 0 0 0 0 1 2 2 2 2 2 2 2 1 0 1 3 4 5 6 5
-5 -5 -6 -6 -6 -7 -7 -7 -6 -6 -6 -6 -6 -6 -6 -6 -5 -5 -5 -4 -4 -3 -4 -2 -2 -4 -2 -1 -1 -2 -1 -0 -2 -3 -3 -2 -1 0 1 -4 -3 -1 1 -4 -4 -1 3 -0 -2 -1 4 2 0 0 2 1 0 0 1 1 1 1 0 -1 -2 -3 -3 -2 -1 -0 0 0 0 0 1 2 3 3 2 1 1 1 1 1 0 0 0 0 1 1 1 1 1 1 1 1 -0 -0 1 3 5 5 6
-5 -6 -5 -6 -6 -6 -7 -7 -6 -6 -6 -6 -6 -6 -6 -6 -5 -4 -6 -4 -4 -4 -3 -2 -3 -3 -1 -1 -2 -2 -1 0 -2 -4 -3 -1 0 0 -0 -4 -1 2 -1 -5 -3 1 2 -2 -2 0 3 0 0 2 3 1 1 1 -0 0 1 2 1 0 -1 -3 -3 -3 -1 -0 0 0 0 1 1 2 3 3 2 1 1 1 1 0 0 -0 -0 0 1 1 1 1 1 1 1 0 -0 -0 -0 1 3 5 6
-5 -6 -5 -6 -6 -6 -6 -6 -6 -6 -6 -6 -6 -6 -6 -6 -5 -4 -5 -5 -4 -4 -2 -3 -3 -1 1 -2 -2 -2 -0 -0 -3 -4 -1 1 0 -1 -3 -2 1 2 -3 -4 -0 3 -0 -4 -2 1 1 -0 2 4 1 1 2 2 -1 1 1 1 0 0 -0 -2 -3 -3 -2 -1 -0 0 1 1 1 2 2 2 1 1 2 2 1 0 -0 -1 -1 -0 1 1 2 2 2 1 1 0 -0 -1 -1 -0 2 3 5
-5 -5 -6 -5 -5 -5 -5 -5 -5 -5 -5 -6 -6 -6 -5 -7 -6 -5 -5 -5 -4 -3 -3 -4 -2 -0 -0 -2 -2 -1 -1 -1 -3 -3 1 2 -1 -3 -3 1 2 0 -4 -1 2 2 -4 -4 -1 2 -2 -0 2 3 -0 3 3 1 0 2 1 -0 0 0 0 -1 -2 -2 -2 -1 -1 -0 1 1 1 2 2 1 1 1 2 2 1 0 -0 -1 -1 0 1 2 2 2 1 1 0 -0 -0 -0 -1 -0 0 1 3
-5 -5 -5 -5 -4 -4 -5 -4 -4 -4 -5 -5 -6 -6 -6 -6 -6 -5 -4 -5 -4 -4 -4 -4 -3 -1 -1 -0 -1 -1 -2 -1 -2 -2 1 1 -1 -3 0 2 1 -2 -2 1 2 -0 -4 -1 1 0 -5 -1 1 2 3 4 2 0 3 2 -0 -1 0 -0 -0 -0 -0 -1 -2 -2 -1 -0 0 1 2 1 1 1 1 2 1 1 1 0 -0 -0 -0 1 2 2 2 1 0 -1 -1 -1 -1 -1 -1 -0 -1 -1 1
-5 -5 -4 -4 -4 -3 -3 -4 -4 -4 -4 -4 -5 -5 -6 -6 -6 -5 -5 -5 -4 -4 -4 -4 -4 -3 -2 1 -0 -2 -2 0 -1 -2 0 0 -1 -1 2 2 -1 -2 -0 2 1 -1 -1 1 -0 -3 -5 -1 2 4 5 1 0 1 4 1 -1 -1 -0 -1 -1 -0 0 -1 -1 -2 -2 -1 0 1 2 1 1 1 2 2 1 1 0 1 1 1 2 2 3 2 1 0 -1 -2 -2 -2 -2 -2 -2 -1 -1 0 1
-5 -5 -4 -3 -3 -3 -2 -3 -3 -3 -3 -4 -4 -5 -5 -5 -5 -5 -5 -4 -4 -4 -3 -4 -4 -4 -2 -1 -1 -1 -1 0 -1 -2 -1 -0 -0 -0 2 1 -1 -1 1 2 1 0 1 1 -2 -4 -4 -0 3 4 0 -0 2 4 3 1 0 -0 -0 -0 -0 -0 0 0 -1 -1 -2 -1 -1 0 1 1 1 2 2 1 1 1 1 2 2 3 3 4 3 2 1 -1 -2 -3 -4 -4 -3 -3 -2 -0 2 4 3
-4 -4 -3 -3 -2 -2 -2 -2 -2 -2 -3 -3 -3 -4 -4 -5 -5 -5 -5 -4 -4 -4 -3 -3 -4 -4 -3 -2 -2 -1 0 -1 -1 -1 -1 -0 0 0 1 0 -0 -0 2 2 1 0 2 1 -1 -4 -3 0 2 1 -3 2 4 4 0 0 1 1 1 -0 -1 -1 -0 0 -0 -1 -2 -2 -1 -1 0 1 2 2 2 1 1 1 2 2 2 2 3 3 2 1 -0 -2 -3 -4 -4 -3 -1 -0 0 1 5 7 5
-4 -3 -3 -2 -2 -2 -2 -2 -2 -2 -2 -2 -2 -3 -4 -4 -4 -4 -4 -4 -4 -3 -3 -3 -3 -4 -4 -3 -2 -2 -1 -1 -1 -0 -1 -0 0 0 0 0 0 1 2 2 0 -0 3 1 -1 -3 -3 -0 -1 -2 0 5 4 0 -1 1 3 3 1 -1 -2 -1 0 0 -0 -0 -2 -2 -2 -1 0 1 2 2 2 1 2 2 2 2 1 1 1 1 1 -0 -1 -2 -2 -3 -2 -1 1 1 2 2 4 5 3
-4 -3 -2 -2 -1 -1 -1 -1 -1 -1 -1 -1 -2 -2 -3 -3 -4 -4 -4 -4 -4 -3 -3 -2 -3 -4 -4 -4 -3 -2 -2 -2 -1 -0 -0 -1 0 1 1 0 0 1 2 0 -0 1 4 0 -2 -2 -2 -2 -2 -1 3 3 0 -2 1 5 5 3 -0 -1 -1 0 0 -0 -0 -1 -1 -2 -2 -1 1 1 2 2 2 2 2 2 3 2 2 2 2 1 0 -0 -1 -1 -2 -2 -2 -1 -0 -0 1 2 3 2 0
-4 -3 -2 -1 -1 -1 -1 -1 -1 -1 -1 -1 -1 -2 -2 -3 -3 -3 -3 -4 -4 -3 -3 -3 -3 -3 -4 -4 -4 -3 -3 -2 -1 -1 -1 0 1 1 0 0 1 1 1 -0 1 2 2 -1 -2 -2 -3 -2 -1 1 3 0 -1 0 6 5 3 1 1 1 1 1 -0 -1 -1 -1 -1 -2 -1 -0 1 1 1 1 2 2 2 3 3 3 3 3 4 3 3 2 1 -1 -2 -3 -2 -2 -2 -1 0 2 2 2 -0
-4 -3 -2 -1 -1 -0 -1 -1 -1 -1 -0 -0 -0 -1 -2 -2 -3 -3 -3 -3 -3 -3 -3 -3 -3 -3 -3 -4 -4 -4 -4 -4 -3 -2 -1 1 1 1 -0 1 1 1 -0 1 2 3 0 -1 -2 -3 -3 -0 1 1 1 -2 -1 2 6 1 0 3 5 2 2 1 -1 -1 -1 -1 -2 -1 -1 0 1 0 1 1 3 3 3 3 3 3 3 3 4 4 4 3 0 -2 -3 -3 -3 -3 -2 -1 1 2 2 1 -0
-4 -3 -2 -1 -1 -0 -0 -0 -1 -1 -0 0 0 -0 -1 -2 -2 -3 -3 -3 -3 -2 -2 -2 -2 -2 -2 -3 -4 -5 -5 -5 -4 -3 -1 0 0 0 1 2 2 0 -0 2 2 2 -0 -1 -3 -3 -1 2 2 0 -1 -2 1 3 1 -1 4 7 4 1 1 1 -2 -1 -0 -1 -2 -1 0 1 1 1 1 2 3 3 3 3 3 3 3 3 3 4 3 1 -1 -2 -3 -4 -4 -4 -3 -1 0 1 1 0 -1
-4 -3 -3 -2 -1 -0 -0 -0 -0 -0 -0 0 0 0 -1 -1 -2 -2 -3 -3 -3 -2 -2 -2 -2 -1 -1 -1 -2 -3 -5 -5 -5 -4 -3 -2 -1 0 2 1 1 0 1 2 2 1 -0 -2 -3 -3 0 1 1 -0 -1 0 1 0 -2 4 6 5 -2 1 2 1 -1 1 0 -1 -2 -0 1 1 1 1 2 2 3 3 3 3 3 3 3 3 3 3 2 -0 -2 -3 -4 -6 -6 -5 -3 -1 0 0 0 -0 -1
-4 -3 -3 -2 -1 -0 0 -0 0 0 0 0 0 0 -0 -1 -1 -2 -2 -3 -3 -3 -2 -2 -2 -2 -1 -1 -1 -2 -4 -5 -5 -5 -6 -4 -1 1 2 1 2 3 3 2 1 1 -1 -2 -3 -2 1 1 1 0 -0 0 -1 -2 0 5 3 -1 -2 3 3 1 3 3 0 -2 -0 0 1 1 2 2 2 2 2 2 3 3 4 3 2 1 2 2 0 -1 -2 -4 -6 -7 -6 -3 -1 1 2 2 1 -0 -1
-4 -3 -3 -2 -1 -0 -0 0 1 1 1 1 1 1 0 -0 -1 -1 -1 -2 -3 -3 -2 -2 -3 -3 -1 -1 -1 -2 -2 -4 -4 -5 -6 -5 -2 0 1 4 4 3 -0 0 0 0 -1 -2 -2 -1 3 2 2 1 -1 -2 -2 -1 2 2 -0 -1 3 4 3 2 4 1 -1 -1 2 1 1 1 2 2 2 2 1 2 3 4 4 3 2 2 2 1 -1 -2 -3 -4 -6 -6 -4 -1 1 3 4 4 3 1 -1
-4 -4 -3 -2 -2 -1 -0 0 1 1 1 2 2 2 1 1 -0 -1 -1 -1 -2 -3 -2 -2 -2 -3 -2 -1 -1 -2 -2 -3 -4 -5 -4 -3 -3 -3 -0 3 1 -1 1 3 1 -1 0 -3 -2 0 3 2 1 -1 -3 -3 -1 -0 1 1 1 1 3 1 1 1 2 0 1 3 3 0 0 1 1 2 2 2 2 3 4 4 4 3 3 3 2 -0 -2 -3 -3 -4 -5 -4 -3 -0 2 4 5 4 3 2 0
-4 -4 -4 -3 -3 -2 -1 0 0 0 1 2 2 2 2 2 1 0 -0 -0 -1 -1 -2 -2 -2 -2 -2 -1 -0 -1 -2 -3 -4 -5 -4 -3 -4 -4 -3 -2 -1 2 11 7 2 -1 -2 -4 -1 3 2 1 0 -1 -3 -2 -2 -1 2 2 1 -1 -1 -1 0 1 3 3 4 4 2 0 1 1 1 1 1 2 3 3 4 4 5 4 4 3 1 -1 -2 -2 -3 -3 -4 -4 -3 -1 2 3 4 4 3 2 1
-4 -4 -4 -4 -4 -3 -2 -1 -1 -0 0 1 1 2 2 2 2 1 1 0 -0 -1 -1 -2 -2 -1 -1 -1 0 0 -2 -3 -4 -5 -6 -5 -4 -3 -4 -2 3 7 9 3 2 2 -4 -2 2 3 -1 2 1 -1 -3 -3 -3 -2 4 2 0 -1 1 0 1 2 4 4 4 3 2 2 2 2 1 1 1 1 3 4 4 5 5 5 4 2 -1 -3 -3 -1 -1 -2 -3 -3 -3 -1 1 2 3 3 2 1 -0
-4 -4 -4 -5 -5 -4 -4 -3 -2 -2 -1 -0 0 1 1 2 2 2 2 1 1 0 1 -1 -2 -1 0 -1 -0 1 1 -2 -3 -3 -5 -6 -5 -3 -2 -1 0 1 -3 -2 2 6 5 3 0 -1 -1 2 1 -2 -3 -5 -4 -0 5 2 1 2 2 -2 -2 0 1 1 2 4 3 3 2 2 2 1 1 2 4 4 4 5 5 5 3 1 -2 -3 -2 -0 0 -1 -2 -3 -3 -1 -0 1 2 2 1 -0 -1
-4 -4 -4 -4 -5 -5 -5 -4 -3 -3 -3 -2 -1 -0 0 1 1 1 2 2 1 1 1 0 -1 -2 -1 -1 -0 0 2 -0 -2 -3 -3 -5 -6 -5 -2 -3 -3 -3 0 2 5 8 9 3 -1 -3 -2 0 0 -1 -4 -5 -3 1 2 2 2 0 -3 -4 -3 -1 -1 3 6 7 3 2 3 4 2 1 2 3 3 3 4 4 5 5 4 2 0 -0 0 1 0 -1 -3 -4 -4 -3 -1 0 2 2 1 -1 -2
-4 -4 -4 -4 -4 -4 -5 -5 -4 -4 -4 -3 -2 -1 -1 -0 0 1 1 2 1 1 0 1 -0 -1 -2 -1 -0 0 2 2 -0 -2 -2 -3 -5 -6 -5 -4 -2 1 4 3 5 6 4 3 -0 -2 2 3 -0 -3 -1 -1 -2 -1 2 3 2 -1 -3 -2 -1 0 1 6 7 5 0 3 5 4 1 2 3 3 2 3 3 3 4 5 4 3 1 1 1 1 0 -2 -4 -5 -5 -4 -1 1 3 2 0 -2 -2
-3 -2 -2 -3 -3 -3 -3 -3 -3 -3 -4 -3 -3 -2 -2 -1 -1 -0 -0 1 1 0 0 1 0 -0 -2 -2 -1 0 1 2 1 -1 -2 -2 -3 -5 -5 -4 -2 -1 -1 0 2 3 2 2 -2 -1 12 4 -4 -6 4 -1 -4 -3 3 3 1 -1 -1 -1 -2 -1 1 3 2 -0 0 6 6 4 1 4 4 2 2 3 3 3 5 6 5 3 2 0 -0 0 1 -1 -4 -5 -5 -2 -0 1 2 1 -0 -2 -1
-1 -1 -0 0 0 0 0 0 -0 -1 -1 -2 -2 -1 -2 -2 -2 -1 -1 -0 0 0 1 0 -0 -1 -1 -2 -2 -0 0 1 1 1 -1 -1 -2 -3 -3 -4 -4 -4 -3 0 1 1 4 1 1 5 13 -1 -5 -2 4 -5 -5 -0 4 2 0 -1 -3 -4 -4 -3 -1 -0 -0 1 5 7 5 2 4 5 3 2 4 4 4 4 6 6 6 5 3 2 0 0 2 -0 -3 -4 -3 -1 0 1 2 1 -0 -1 1
-0 0 1 2 2 3 3 3 3 2 2 1 1 0 0 -1 -2 -2 -1 -1 -1 -0 0 -0 -1 -1 -1 -2 -2 -1 -1 -0 -0 0 2 1 -1 -2 -2 -3 -3 -3 -1 -1 -1 -0 2 1 4 6 2 -2 4 8 -3 -7 -2 4 3 1 -1 -3 -4 -4 -4 -2 -0 0 2 3 6 4 3 3 6 3 2 3 5 4 4 5 6 7 7 7 5 4 2 1 2 0 -2 -3 -2 -1 -0 0 1 -0 -1 0 3
-0 -0 1 1 1 2 2 2 2 2 1 2 1 1 1 -0 -1 -2 -1 -2 -1 -1 -0 -1 -1 -2 -2 -2 -2 -2 -2 -1 -0 -0 1 2 1 -1 -1 -1 -2 -3 -2 -3 -2 -2 -1 0 2 2 -2 5 9 6 -8 -5 1 3 -1 -3 -4 -5 -4 -4 -2 -0 1 1 2 3 2 1 3 4 5 2 2 3 5 4 5 5 6 7 8 7 5 3 1 -0 2 -1 -3 -4 -2 -1 -1 -1 -1 -1 -0 2 5
Height
5816 5815 5814 5813 5813 5812 5812 5811 5811 5810 5810 5809 5808 5808 5808 5808 5808 5808 5808 5808 5809 5809 5808 5809 5809 5810 5810 5811 5811 5811 5812 5812 5812 5812 5812 5812 5811 5811 5810 5810 5811 5812 5814 5815 5817 5818 5819 5819 5820 5820 5820 5821 5822 5823 5824 5825 5826 5827 5828 5829 5830 5831 5832 5833 5835 5836 5837 5839 5840 5841 5843 5843 5844 5846 5847 5847 5848 5849 5850 5851 5852 5853 5854 5855 5857 5857 5859 5860 5861 5862 5863 5864 5865 5867 5868 5869 5871 5871 5870 5871 5872 5873 5874
5811 5810 5809 5809 5808 5807 5807 5807 5806 5806 5805 5805 5804 5804 5803 5803 5803 5803 5803 5804 5804 5804 5804 5804 5804 5805 5805 5806 5806 5807 5807 5807 5808 5808 5808 5807 5807 5806 5806 5807 5807 5809 5810 5812 5813 5814 5815 5815 5816 5816 5816 5817 5817 5818 5820 5821 5822 5823 5824 5825 5827 5827 5829 5830 5831 5832 5834 5836 5836 5837 5839 5840 5841 5842 5844 5844 5845 5847 5847 5848 5849 5850 5851 5852 5854 5855 5856 5857 5858 5860 5861 5862 5863 5864 5865 5867 5868 5868 5868 5869 5870 5871 5872
5805 5804 5804 5803 5802 5802 5802 5801 5801 5800 5800 5800 5799 5799 5799 5798 5798 5798 5798 5799 5798 5798 5799 5799 5799 5799 5800 5801 5801 5802 5802 5803 5804 5804 5804 5803 5802 5802 5802 5802 5804 5805 5807 5808 5809 5809 5810 5811 5812 5812 5812 5812 5813 5814 5816 5817 5818 5819 5820 5822 5823 5824 5825 5826 5827 5829 5831 5832 5833 5834 5835 5836 5837 5839 5840 5841 5842 5844 5845 5846 5846 5847 5848 5849 5851 5852 5853 5854 5856 5857 5858 5860 5861 5862 5863 5865 5866 5866 5867 5867 5868 5870 5871
5800 5799 5798 5797 5797 5796 5795 5795 5795 5794 5794 5794 5793 5793 5793 5793 5793 5793 5793 5793 5793 5793 5793 5794 5794 5794 5795 5795 5796 5797 5797 5798 5799 5799 5798 5797 5797 5797 5798 5799 5800 5801 5802 5804 5804 5805 5806 5807 5807 5808 5808 5808 5809 5810 5811 5812 5814 5815 5816 5817 5819 5820 5821 5822 5824 5825 5827 5828 5829 5831 5831 5832 5834 5836 5837 5838 5840 5841 5841 5842 5844 5845 5845 5846 5848 5849 5850 5852 5853 5854 5856 5857 5859 5860 5861 5862 5863 5864 5865 5865 5867 5868 5870
5796 5795 5793 5792 5792 5791 5790 5789 5789 5788 5788 5787 5787 5787 5787 5787 5788 5788 5788 5787 5788 5788 5788 5788 5788 5789 5789 5790 5790 5791 5792 5793 5793 5793 5792 5792 5792 5793 5794 5795 5796 5797 5798 5799 5800 5800 5801 5802 5803 5803 5803 5804 5804 5805 5807 5808 5809 5811 5812 5813 5814 5816 5817 5818 5820 5822 5823 5824 5826 5827 5828 5829 5830 5832 5834 5835 5836 5837 5839 5839 5840 5841 5843 5843 5845 5846 5847 5849 5850 5852 5853 5855 5856 5857 5858 5859 5861 5862 5864 5864 5864 5865 5867
5791 5790 5789 5788 5787 5786 5785 5784 5784 5783 5782 5782 5781 5781 5781 5781 5781 5781 5781 5781 5782 5782 5782 5782 5783 5783 5784 5784 5785 5786 5787 5787 5787 5787 5787 5787 5788 5789 5790 5791 5792 5793 5794 5795 5795 5796 5797 5798 5798 5799 5799 5799 5800 5801 5802 5804 5805 5806 5807 5809 5810 5812 5813 5816 5817 5818 5820 5822 5823 5824 5825 5826 5827 5828 5829 5832 5832 5833 5835 5837 5837 5837 5840 5842 5842 5843 5844 5846 5847 5848 5850 5852 5853 5855 5856 5857 5858 5860 5862 5861 5862 5863 5864
5786 5785 5784 5783 5782 5781 5780 5779 5778 5778 5777 5776 5776 5775 5775 5775 5774 5774 5774 5774 5775 5775 5776 5777 5777 5777 5778 5779 5779 5780 5781 5781 5781 5781 5781 5782 5783 5784 5785 5786 5787 5788 5789 5790 5791 5791 5792 5793 5794 5794 5794 5794 5795 5797 5798 5799 5801 5802 5803 5804 5806 5807 5809 5810 5812 5814 5816 5818 5820 5821 5822 5823 5824 5825 5826 5828 5828 5829 5831 5833 5834 5835 5836 5837 5840 5841 5841 5842 5844 5846 5847 5849 5851 5853 5852 5853 5855 5857 5858 5858 5859 5861 5862
5780 5779 5778 5777 5776 5776 5775 5774 5773 5772 5772 5771 5770 5770 5769 5769 5769 5768 5768 5767 5768 5768 5769 5769 5770 5771 5772 5772 5773 5774 5775 5775 5775 5775 5775 5776 5777 5778 5779 5780 5782 5783 5784 5785 5786 5787 5787 5788 5789 5789 5789 5790 5791 5792 5793 5795 5796 5797 5798 5800 5801 5803 5804 5806 5807 5809 5812 5814 5815 5817 5818 5820 5821 5822 5822 5823 5825 5826 5827 5829 5831 5832 5833 5834 5835 5837 5839 5840 5842 5843 5844 5846 5847 5849 5850 5851 5852 5854 5855 5857 5857 5858 5859
5774 5773 5772 5771 5770 5769 5768 5767 5767 5766 5765 5765 5764 5764 5764 5763 5763 5762 5762 5762 5762 5762 5762 5762 5763 5764 5765 5766 5767 5768 5769 5769 5768 5769 5769 5770 5771 5772 5773 5775 5776 5777 5778 5780 5781 5781 5782 5783 5784 5785 5785 5785 5786 5787 5789 5790 5792 5793 5794 5795 5797 5798 5800 5802 5803 5805 5807 5809 5810 5812 5814 5816 5817 5818 5819 5820 5821 5822 5823 5825 5827 5828 5829 5831 5832 5833 5834 5837 5839 5840 5841 5842 5844 5846 5847 5848 5849 5851 5852 5855 5856 5856 5857
5767 5767 5765 5764 5763 5762 5762 5761 5760 5759 5759 5758 5758 5757 5757 5757 5757 5756 5756 5756 5755 5755 5755 5756 5756 5757 5757 5759 5760 5761 5762 5762 5762 5762 5763 5764 5765 5766 5767 5769 5770 5771 5773 5774 5775 5776 5777 5778 5779 5779 5780 5781 5782 5783 5784 5786 5787 5788 5789 5791 5792 5793 5795 5797 5798 5801 5802 5804 5805 5807 5809 5811 5813 5814 5816 5816 5817 5819 5820 5822 5824 5825 5826 5828 5829 5829 5831 5833 5835 5837 5838 5839 5841 5842 5843 5845 5847 5848 5850 5851 5853 5855 5856
5761 5760 5758 5757 5756 5755 5754 5754 5753 5752 5752 5751 5751 5751 5750 5750 5750 5750 5749 5749 5749 5749 5749 5749 5749 5750 5751 5751 5752 5753 5755 5755 5755 5756 5757 5758 5759 5760 5762 5763 5764 5765 5767 5768 5769 5770 5771 5772 5773 5774 5775 5776 5777 5778 5779 5781 5782 5783 5784 5786 5787 5789 5790 5792 5794 5796 5797 5799 5801 5803 5805 5806 5808 5810 5812 5813 5815 5816 5817 5819 5820 5822 5823 5824 5825 5826 5827 5829 5831 5833 5835 5836 5837 5839 5841 5842 5844 5846 5847 5848 5851 5853 5854
5754 5752 5752 5750 5749 5748 5747 5746 5746 5745 5744 5744 5743 5743 5743 5743 5743 5742 5742 5742 5742 5742 5742 5742 5743 5743 5744 5744 5745 5746 5747 5747 5748 5749 5751 5752 5753 5754 5755 5756 5757 5759 5760 5762 5762 5764 5765 5767 5767 5769 5770 5771 5772 5773 5774 5776 5777 5778 5779 5781 5782 5784 5786 5787 5789 5791 5792 5794 5796 5798 5800 5802 5804 5805 5807 5809 5810 5812 5815 5815 5816 5817 5818 5820 5821 5822 5824 5826 5827 5829 5832 5833 5834 5836 5838 5839 5841 5842 5844 5846 5847 5849 5849
5747 5745 5744 5743 5742 5741 5740 5739 5738 5737 5737 5736 5736 5735 5735 5735 5735 5735 5735 5735 5735 5735 5735 5736 5736 5736 5737 5737 5738 5739 5739 5740 5741 5742 5743 5745 5746 5747 5749 5750 5751 5752 5754 5755 5756 5757 5759 5760 5762 5763 5764 5765 5767 5768 5769 5771 5772 5773 5774 5776 5777 5779 5781 5782 5784 5786 5787 5789 5792 5794 5796 5798 5800 5802 5803 5805 5806 5808 5810 5811 5812 5814 5815 5816 5817 5819 5821 5822 5824 5826 5828 5830 5831 5833 5835 5837 5838 5840 5841 5843 5844 5845 5847
5740 5739 5737 5736 5735 5734 5733 5732 5731 5730 5729 5728 5728 5727 5727 5727 5727 5727 5727 5727 5727 5727 5728 5728 5728 5729 5730 5730 5731 5732 5732 5732 5733 5734 5736 5737 5739 5741 5742 5743 5744 5746 5747 5748 5749 5751 5752 5754 5755 5757 5758 5760 5761 5763 5764 5765 5767 5767 5769 5770 5772 5774 5776 5777 5779 5781 5782 5784 5787 5789 5792 5794 5796 5797 5799 5800 5802 5803 5805 5807 5809 5810 5812 5813 5814 5816 5817 5819 5821 5822 5824 5827 5828 5830 5832 5833 5835 5837 5838 5840 5841 5842 5844
5734 5732 5731 5729 5728 5727 5725 5724 5723 5722 5722 5721 5720 5720 5719 5719 5719 5719 5719 5719 5719 5720 5720 5720 5721 5721 5722 5723 5723 5724 5725 5725 5726 5727 5728 5730 5732 5733 5735 5736 5737 5739 5740 5741 5742 5744 5746 5747 5748 5750 5752 5753 5755 5757 5758 5760 5761 5762 5763 5765 5767 5769 5771 5772 5774 5776 5777 5780 5782 5784 5787 5789 5791 5793 5794 5796 5797 5799 5800 5802 5804 5806 5808 5810 5811 5812 5814 5816 5817 5819 5821 5824 5826 5827 5828 5830 5832 5833 5835 5836 5838 5840 5841
5727 5726 5724 5722 5721 5719 5718 5717 5716 5715 5714 5713 5712 5712 5712 5711 5711 5711 5711 5711 5711 5711 5712 5712 5713 5713 5714 5715 5716 5717 5717 5717 5718 5719 5720 5722 5724 5726 5727 5729 5731 5732 5733 5734 5736 5737 5739 5740 5742 5743 5745 5747 5749 5751 5752 5754 5755 5757 5758 5759 5761 5763 5766 5767 5769 5771 5773 5775 5777 5779 5782 5784 5787 5788 5790 5791 5793 5794 5796 5797 5799 5802 5803 5805 5807 5808 5810 5812 5814 5816 5817 5820 5822 5824 5826 5827 5828 5830 5832 5833 5835 5837 5838
5721 5719 5717 5715 5714 5712 5711 5709 5708 5707 5706 5705 5704 5704 5703 5703 5703 5703 5703 5702 5703 5703 5703 5704 5704 5705 5706 5707 5707 5708 5709 5710 5711 5712 5712 5714 5716 5717 5719 5721 5723 5724 5726 5727 5728 5730 5732 5733 5735 5737 5738 5740 5742 5744 5746 5748 5750 5751 5752 5754 5756 5758 5760 5762 5764 5766 5768 5770 5772 5774 5777 5779 5782 5784 5785 5787 5788 5790 5792 5793 5795 5797 5799 5801 5803 5805 5807 5808 5810 5812 5814 5816 5817 5819 5822 5823 5825 5827 5828 5830 5832 5833 5835
5714 5712 5710 5708 5706 5705 5703 5702 5700 5699 5698 5697 5696 5696 5695 5695 5695 5695 5694 5694 5694 5695 5695 5695 5696 5697 5697 5698 5699 5700 5701 5702 5703 5704 5705 5706 5707 5709 5711 5713 5715 5717 5718 5720 5721 5723 5724 5726 5728 5730 5732 5733 5735 5737 5740 5742 5743 5745 5747 5748 5750 5752 5755 5757 5759 5761 5763 5764 5766 5768 5771 5774 5777 5779 5780 5782 5784 5786 5787 5789 5791 5793 5795 5797 5800 5802 5803 5805 5806 5808 5810 5812 5814 5815 5818 5819 5822 5824 5825 5827 5828 5830 5832
5706 5704 5702 5700 5698 5697 5695 5693 5692 5691 5689 5688 5687 5687 5686 5686 5686 5686 5686 5686 5686 5686 5686 5687 5687 5688 5688 5689 5690 5691 5692 5693 5694 5696 5697 5698 5699 5701 5703 5705 5707 5709 5711 5712 5714 5716 5717 5719 5721 5723 5725 5727 5728 5731 5733 5735 5737 5739 5741 5742 5745 5747 5749 5752 5754 5756 5757 5759 5761 5763 5766 5769 5771 5773 5775 5777 5779 5781 5783 5785 5787 5789 5791 5794 5796 5798 5799 5800 5802 5805 5806 5808 5810 5812 5814 5816 5818 5821 5822 5824 5825 5827 5828
5697 5695 5693 5691 5689 5688 5686 5685 5683 5682 5680 5679 5678 5677 5677 5676 5676 5676 5676 5676 5677 5677 5677 5678 5678 5679 5679 5680 5681 5682 5683 5684 5686 5687 5688 5690 5691 5692 5694 5696 5698 5701 5703 5705 5707 5708 5710 5712 5714 5716 5718 5720 5722 5724 5726 5728 5730 5732 5734 5736 5738 5741 5743 5746 5748 5750 5752 5754 5756 5759 5761 5764 5766 5768 5770 5772 5774 5777 5778 5780 5782 5784 5786 5789 5792 5793 5795 5796 5798 5801 5802 5804 5806 5808 5810 5812 5815 5817 5819 5821 5822 5824 5825
5688 5686 5684 5682 5680 5678 5677 5675 5673 5672 5671 5669 5668 5667 5667 5666 5666 5666 5666 5666 5667 5667 5667 5668 5668 5669 5670 5671 5672 5673 5674 5675 5677 5678 5679 5681 5682 5684 5686 5687 5690 5692 5694 5697 5699 5701 5703 5704 5706 5708 5711 5712 5715 5717 5719 5721 5723 5725 5727 5730 5732 5735 5737 5740 5742 5744 5746 5749 5751 5754 5756 5758 5760 5762 5765 5767 5769 5772 5774 5776 5778 5780 5782 5784 5786 5788 5791 5792 5795 5797 5798 5800 5802 5804 5806 5809 5812 5814 5816 5818 5820 5821 5822
5679 5677 5674 5672 5670 5668 5666 5665 5663 5662 5660 5659 5657 5657 5656 5656 5656 5656 5656 5656 5656 5656 5657 5657 5658 5659 5660 5661 5662 5663 5665 5666 5668 5669 5671 5672 5673 5675 5677 5678 5681 5683 5686 5688 5691 5693 5695 5697 5699 5701 5703 5706 5708 5710 5712 5714 5716 5718 5721 5723 5726 5728 5731 5733 5736 5738 5741 5743 5746 5748 5750 5752 5754 5757 5759 5762 5765 5767 5769 5771 5773 5775 5777 5780 5782 5784 5787 5788 5791 5793 5794 5797 5799 5801 5803 5805 5807 5809 5812 5814 5816 5818 5819
5671 5668 5665 5662 5660 5658 5656 5654 5652 5651 5650 5648 5647 5646 5646 5645 5645 5645 5645 5645 5645 5645 5645 5647 5647 5648 5649 5651 5652 5653 5654 5656 5658 5660 5661 5662 5664 5666 5667 5669 5671 5674 5677 5679 5682 5685 5687 5689 5692 5694 5696 5698 5701 5703 5705 5707 5709 5711 5714 5716 5719 5722 5724 5727 5729 5732 5735 5738 5740 5742 5744 5747 5749 5752 5754 5757 5759 5762 5764 5766 5768 5770 5772 5775 5777 5779 5782 5784 5787 5789 5790 5793 5796 5798 5800 5802 5803 5805 5808 5810 5813 5815 5817
5661 5658 5656 5652 5650 5648 5646 5643 5642 5641 5639 5637 5636 5635 5635 5634 5634 5634 5634 5634 5634 5634 5634 5635 5636 5637 5638 5640 5641 5642 5644 5646 5648 5650 5652 5653 5655 5657 5658 5660 5662 5664 5667 5670 5673 5676 5679 5681 5684 5686 5688 5691 5693 5696 5698 5700 5702 5704 5707 5709 5712 5715 5717 5720 5723 5726 5729 5732 5734 5737 5739 5741 5744 5747 5749 5751 5754 5756 5758 5761 5763 5765 5768 5771 5773 5775 5777 5780 5782 5784 5787 5789 5792 5794 5797 5798 5800 5802 5804 5807 5809 5811 5813
5652 5649 5647 5643 5640 5638 5636 5633 5632 5630 5628 5627 5626 5625 5624 5623 5623 5623 5623 5623 5623 5623 5623 5624 5625 5625 5627 5628 5630 5631 5632 5635 5637 5639 5641 5643 5645 5647 5649 5650 5652 5655 5657 5660 5664 5667 5670 5673 5676 5678 5681 5683 5686 5688 5691 5692 5694 5697 5699 5702 5705 5707 5711 5713 5717 5720 5722 5725 5728 5731 5733 5736 5738 5741 5743 5746 5748 5751 5753 5756 5758 5761 5763 5766 5769 5771 5772 5775 5777 5780 5782 5785 5787 5789 5792 5794 5797 5798 5800 5803 5805 5807 5809
5642 5640 5637 5633 5631 5629 5627 5624 5622 5621 5618 5617 5615 5614 5614 5613 5612 5613 5613 5612 5612 5612 5612 5613 5613 5614 5615 5617 5618 5619 5621 5623 5626 5628 5630 5632 5635 5637 5639 5641 5642 5645 5648 5651 5654 5657 5661 5664 5667 5670 5672 5675 5678 5681 5683 5685 5687 5689 5692 5695 5697 5700 5703 5707 5710 5713 5716 5719 5722 5724 5727 5730 5733 5735 5738 5740 5743 5746 5748 5751 5753 5756 5759 5761 5763 5766 5768 5770 5773 5775 5778 5780 5783 5785 5787 5789 5792 5794 5796 5798 5801 5803 5805
5633 5631 5627 5625 5622 5620 5618 5615 5613 5612 5610 5607 5606 5605 5604 5603 5602 5603 5603 5602 5602 5602 5602 5602 5602 5603 5604 5606 5607 5608 5610 5612 5614 5616 5618 5621 5624 5627 5629 5631 5633 5635 5638 5641 5644 5647 5650 5654 5657 5661 5664 5667 5670 5673 5676 5678 5680 5682 5684 5687 5690 5693 5696 5699 5703 5706 5709 5712 5715 5718 5721 5724 5727 5730 5732 5735 5737 5740 5743 5746 5748 5751 5753 5756 5758 5761 5763 5766 5768 5771 5773 5776 5778 5781 5783 5785 5787 5790 5792 5794 5796 5799 5801
5625 5622 5619 5616 5614 5612 5609 5607 5605 5603 5601 5599 5597 5595 5594 5594 5593 5593 5593 5593 5592 5592 5592 5592 5592 5593 5594 5595 5596 5597 5598 5600 5602 5605 5607 5609 5612 5615 5618 5621 5623 5625 5628 5631 5634 5637 5640 5644 5647 5651 5655 5658 5662 5665 5668 5670 5673 5675 5677 5680 5682 5686 5689 5692 5696 5699 5702 5706 5709 5712 5715 5718 5721 5724 5727 5730 5732 5735 5737 5740 5742 5745 5747 5750 5752 5756 5759 5762 5764 5767 5769 5772 5774 5777 5779 5781 5783 5786 5788 5790 5792 5795 5797
5617 5613 5611 5608 5606 5603 5601 5599 5597 5595 5593 5591 5589 5587 5586 5585 5584 5584 5584 5584 5583 5583 5583 5583 5583 5583 5584 5585 5586 5587 5588 5589 5591 5593 5595 5598 5601 5604 5607 5610 5612 5615 5618 5621 5624 5627 5630 5633 5637 5641 5645 5649 5653 5656 5660 5662 5665 5667 5670 5672 5675 5678 5682 5685 5688 5692 5695 5699 5702 5706 5709 5712 5715 5718 5721 5724 5727 5729 5732 5734 5737 5739 5742 5745 5748 5751 5755 5757 5760 5763 5765 5767 5770 5772 5775 5777 5780 5782 5784 5786 5789 5791 5793
5609 5606 5603 5601 5598 5595 5593 5591 5589 5587 5586 5583 5582 5580 5578 5576 5576 5576 5575 5575 5575 5574 5574 5574 5574 5574 5574 5575 5576 5577 5578 5579 5581 5583 5585 5587 5589 5592 5595 5598 5602 5604 5607 5611 5614 5617 5620 5623 5627 5630 5635 5639 5643 5647 5651 5655 5657 5660 5662 5665 5668 5671 5674 5677 5681 5684 5688 5692 5695 5699 5702 5705 5708 5712 5715 5718 5720 5723 5726 5728 5732 5734 5737 5741 5744 5747 5750 5753 5756 5758 5761 5763 5766 5768 5771 5773 5776 5778 5780 5782 5784 5787 5789
5602 5598 5596 5593 5591 5588 5586 5584 5582 5580 5578 5576 5574 5572 5570 5569 5568 5568 5567 5566 5566 5566 5566 5565 5565 5565 5566 5566 5567 5567 5568 5569 5571 5573 5575 5576 5578 5581 5584 5587 5590 5594 5597 5601 5604 5607 5610 5613 5617 5620 5624 5628 5633 5638 5642 5646 5649 5652 5655 5657 5660 5663 5666 5670 5673 5677 5681 5684 5688 5692 5695 5698 5702 5705 5708 5711 5714 5717 5720 5724 5727 5730 5733 5736 5739 5742 5745 5748 5751 5754 5757 5759 5762 5764 5767 5769 5772 5774 5776 5779 5780 5782 5785
5594 5591 5588 5586 5583 5581 5578 5577 5574 5572 5570 5568 5567 5565 5562 5561 5560 5560 5558 5557 5557 5557 5557 5557 5557 5557 5557 5557 5558 5558 5559 5560 5562 5564 5565 5566 5568 5571 5573 5576 5579 5582 5586 5590 5593 5597 5600 5603 5607 5610 5613 5618 5623 5628 5633 5637 5641 5644 5647 5650 5652 5656 5659 5662 5666 5669 5673 5677 5681 5685 5688 5692 5696 5699 5702 5705 5709 5712 5715 5718 5722 5725 5728 5731 5734 5737 5740 5743 5747 5750 5752 5755 5758 5760 5762 5765 5767 5770 5772 5775 5777 5778 5781
5587 5584 5581 5579 5576 5573 5571 5569 5567 5564 5562 5560 5559 5557 5555 5553 5552 5551 5550 5549 5549 5548 5547 5548 5548 5548 5548 5549 5549 5550 5550 5551 5553 5555 5556 5557 5559 5561 5563 5565 5568 5572 5575 5579 5583 5587 5590 5593 5596 5600 5603 5607 5612 5617 5623 5627 5632 5635 5638 5642 5645 5648 5651 5654 5658 5662 5666 5670 5673 5677 5681 5685 5689 5692 5696 5700 5704 5707 5710 5713 5716 5719 5722 5725 5728 5731 5735 5738 5742 5745 5748 5751 5753 5756 5758 5761 5763 5766 5768 5771 5772 5775 5777
5579 5577 5574 5571 5569 5566 5563 5561 5559 5557 5554 5552 5550 5548 5547 5545 5544 5543 5542 5541 5540 5539 5539 5539 5539 5539 5540 5540 5541 5541 5542 5543 5544 5545 5547 5549 5551 5552 5554 5556 5559 5562 5564 5568 5572 5576 5578 5582 5586 5590 5593 5597 5602 5607 5612 5618 5622 5627 5630 5633 5637 5640 5643 5647 5650 5654 5658 5662 5666 5670 5674 5678 5682 5686 5690 5694 5698 5702 5704 5707 5710 5713 5717 5720 5723 5727 5730 5733 5737 5740 5743 5746 5749 5751 5754 5756 5758 5761 5764 5766 5768 5771 5773
5572 5569 5567 5564 5561 5558 5556 5553 5551 5549 5547 5544 5542 5540 5538 5537 5536 5535 5534 5533 5532 5531 5531 5530 5530 5530 5531 5532 5532 5533 5533 5534 5535 5537 5539 5541 5542 5544 5545 5547 5550 5552 5554 5558 5562 5565 5568 5572 5576 5579 5583 5588 5592 5597 5602 5607 5612 5617 5621 5625 5628 5632 5636 5639 5643 5647 5650 5654 5659 5663 5667 5671 5675 5679 5684 5688 5692 5695 5698 5701 5704 5708 5711 5715 5718 5722 5725 5728 5732 5735 5738 5741 5744 5747 5749 5752 5754 5757 5759 5762 5764 5767 5769
5565 5562 5559 5557 5554 5551 5548 5546 5543 5541 5539 5537 5535 5533 5531 5530 5528 5527 5526 5525 5524 5524 5523 5522 5522 5522 5522 5523 5523 5524 5525 5525 5527 5528 5530 5532 5534 5535 5537 5539 5541 5543 5545 5548 5552 5554 5557 5562 5565 5569 5573 5578 5582 5587 5592 5597 5602 5607 5612 5616 5620 5624 5628 5632 5635 5639 5643 5647 5651 5656 5660 5664 5668 5672 5677 5681 5685 5688 5692 5695 5698 5702 5706 5709 5712 5716 5719 5723 5726 5729 5732 5736 5739 5742 5744 5747 5749 5752 5755 5758 5760 5763 5765
5559 5556 5552 5550 5547 5544 5541 5539 5537 5534 5532 5530 5528 5526 5524 5523 5521 5520 5519 5518 5517 5516 5515 5515 5515 5514 5514 5514 5515 5516 5516 5517 5519 5521 5522 5524 5525 5527 5529 5532 5533 5535 5537 5540 5542 5544 5547 5552 5555 5558 5563 5568 5572 5577 5582 5587 5592 5597 5602 5607 5611 5615 5619 5623 5627 5632 5635 5640 5644 5648 5652 5657 5661 5666 5670 5674 5678 5682 5685 5689 5692 5696 5700 5703 5707 5710 5714 5717 5721 5724 5727 5731 5734 5737 5739 5742 5745 5747 5750 5753 5756 5759 5761
5552 5549 5546 5543 5540 5537 5535 5532 5530 5528 5526 5523 5522 5520 5518 5517 5515 5514 5512 5511 5510 5509 5509 5508 5508 5507 5507 5507 5507 5507 5507 5509 5511 5512 5514 5515 5517 5519 5522 5523 5525 5527 5529 5532 5533 5535 5539 5542 5545 5548 5553 5558 5562 5567 5572 5577 5582 5587 5593 5597 5602 5607 5611 5615 5619 5624 5628 5632 5637 5641 5645 5650 5654 5658 5663 5667 5671 5675 5679 5683 5687 5691 5694 5697 5701 5705 5708 5712 5716 5719 5722 5726 5729 5732 5734 5737 5740 5743 5747 5749 5752 5755 5757
5547 5543 5540 5537 5534 5531 5528 5526 5524 5522 5520 5518 5516 5514 5512 5511 5509 5507 5507 5505 5504 5503 5502 5502 5501 5501 5500 5500 5500 5500 5500 5501 5503 5504 5506 5507 5509 5512 5513 5515 5517 5519 5522 5523 5525 5527 5531 5533 5535 5538 5543 5548 5553 5558 5562 5567 5572 5577 5583 5588 5593 5597 5602 5607 5611 5616 5621 5625 5629 5633 5638 5642 5647 5651 5656 5660 5664 5668 5672 5677 5681 5684 5688 5692 5695 5699 5703 5707 5710 5714 5717 5720 5723 5726 5729 5732 5736 5739 5742 5745 5747 5751 5754
5541 5537 5534 5531 5528 5525 5523 5520 5518 5516 5514 5512 5510 5508 5507 5505 5504 5502 5501 5500 5498 5497 5496 5496 5495 5495 5494 5493 5493 5493 5493 5494 5495 5497 5498 5500 5502 5504 5505 5507 5509 5512 5514 5516 5518 5520 5522 5524 5526 5529 5534 5539 5543 5548 5552 5557 5563 5568 5573 5578 5583 5588 5593 5598 5603 5608 5613 5617 5622 5626 5630 5635 5640 5644 5649 5653 5657 5662 5666 5670 5674 5678 5682 5686 5690 5694 5698 5702 5705 5708 5712 5714 5717 5721 5724 5727 5731 5734 5738 5741 5743 5747 5750
5535 5532 5528 5525 5522 5520 5517 5515 5513 5511 5509 5507 5505 5503 5502 5500 5498 5497 5496 5495 5493 5492 5490 5490 5489 5489 5488 5487 5487 5487 5487 5487 5488 5489 5490 5492 5494 5496 5497 5499 5502 5504 5506 5508 5510 5513 5515 5516 5517 5521 5525 5529 5533 5538 5543 5549 5553 5558 5563 5568 5574 5579 5584 5589 5594 5600 5605 5609 5614 5618 5623 5627 5632 5637 5642 5646 5651 5655 5660 5664 5668 5672 5676 5681 5684 5688 5692 5696 5700 5703 5706 5709 5712 5715 5719 5722 5726 5730 5734 5737 5740 5744 5747
5529 5526 5523 5520 5517 5514 5512 5510 5508 5506 5504 5502 5500 5498 5497 5495 5494 5492 5491 5490 5488 5487 5486 5484 5483 5483 5482 5482 5482 5481 5481 5481 5482 5482 5483 5485 5487 5488 5490 5492 5494 5497 5498 5501 5503 5505 5507 5508 5510 5513 5517 5520 5524 5530 5535 5539 5543 5548 5553 5559 5565 5570 5575 5581 5586 5591 5596 5601 5606 5611 5615 5620 5625 5630 5635 5639 5644 5649 5653 5657 5662 5666 5671 5675 5679 5683 5687 5690 5694 5697 5700 5703 5707 5710 5714 5717 5722 5726 5730 5733 5737 5741 5743
5524 5521 5517 5515 5512 5509 5507 5505 5503 5501 5499 5497 5496 5494 5492 5491 5489 5488 5487 5485 5484 5482 5481 5480 5478 5477 5477 5477 5476 5476 5476 5476 5476 5476 5477 5478 5480 5482 5483 5485 5487 5489 5491 5493 5496 5498 5499 5501 5503 5505 5508 5512 5517 5522 5526 5530 5534 5539 5545 5550 5556 5561 5566 5572 5577 5582 5588 5593 5598 5603 5608 5613 5617 5623 5627 5632 5637 5642 5647 5651 5656 5660 5665 5669 5673 5677 5681 5684 5688 5691 5695 5698 5702 5705 5709 5713 5718 5722 5726 5729 5733 5736 5739
5518 5515 5512 5509 5507 5504 5502 5500 5498 5497 5495 5493 5491 5489 5488 5486 5485 5483 5482 5481 5480 5478 5477 5475 5474 5473 5472 5472 5471 5471 5471 5471 5470 5471 5471 5472 5474 5475 5477 5478 5480 5482 5484 5486 5488 5491 5492 5494 5496 5498 5501 5505 5510 5514 5517 5520 5525 5530 5536 5541 5547 5552 5557 5563 5568 5574 5579 5585 5590 5595 5600 5605 5610 5616 5621 5626 5631 5635 5640 5645 5649 5653 5658 5662 5667 5671 5675 5678 5682 5686 5689 5693 5697 5701 5705 5709 5713 5717 5721 5725 5728 5732 5735
5513 5510 5507 5504 5502 5499 5497 5495 5493 5492 5490 5488 5486 5485 5483 5482 5480 5479 5477 5476 5475 5474 5472 5471 5470 5468 5467 5467 5466 5466 5466 5465 5465 5466 5466 5467 5468 5469 5470 5472 5473 5475 5477 5479 5481 5483 5485 5487 5488 5491 5495 5499 5502 5505 5508 5512 5517 5522 5527 5532 5537 5543 5549 5554 5560 5565 5571 5576 5582 5587 5592 5598 5603 5609 5614 5619 5624 5628 5633 5638 5643 5647 5652 5657 5661 5665 5669 5673 5677 5680 5684 5688 5692 5696 5700 5704 5708 5712 5716 5721 5724 5728 5731
5508 5505 5502 5499 5497 5494 5492 5490 5488 5487 5485 5483 5482 5480 5478 5477 5476 5474 5473 5472 5471 5470 5468 5467 5466 5464 5463 5462 5462 5461 5460 5460 5460 5461 5461 5462 5462 5463 5464 5466 5467 5469 5471 5472 5474 5476 5478 5480 5482 5485 5488 5492 5495 5497 5500 5504 5509 5514 5518 5524 5529 5535 5540 5545 5551 5557 5562 5568 5573 5579 5584 5590 5596 5602 5607 5612 5617 5622 5627 5632 5636 5641 5646 5651 5655 5659 5664 5667 5671 5675 5679 5682 5686 5690 5694 5698 5703 5707 5712 5716 5720 5724 5727
5502 5500 5497 5494 5492 5489 5487 5485 5483 5482 5480 5478 5477 5475 5473 5472 5471 5470 5469 5467 5466 5465 5464 5463 5462 5461 5459 5458 5457 5456 5456 5455 5456 5456 5456 5457 5457 5458 5459 5460 5461 5462 5464 5466 5467 5469 5471 5473 5475 5478 5482 5485 5488 5490 5493 5497 5501 5506 5511 5516 5521 5526 5531 5536 5542 5548 5553 5559 5565 5571 5577 5583 5589 5594 5600 5605 5610 5615 5620 5625 5630 5635 5640 5645 5649 5653 5657 5662 5666 5669 5673 5677 5681 5685 5689 5694 5698 5703 5707 5712 5716 5720 5723
5497 5494 5492 5489 5487 5484 5482 5480 5478 5476 5475 5473 5472 5470 5468 5467 5466 5465 5464 5463 5462 5461 5459 5458 5457 5457 5456 5454 5453 5452 5451 5451 5451 5451 5452 5452 5453 5453 5454 5455 5456 5457 5458 5460 5461 5463 5464 5466 5469 5472 5475 5478 5481 5484 5487 5490 5494 5498 5503 5508 5512 5517 5522 5527 5533 5539 5545 5551 5557 5563 5569 5576 5582 5587 5592 5597 5603 5608 5613 5618 5623 5628 5633 5638 5643 5647 5651 5655 5660 5663 5667 5671 5675 5680 5684 5689 5693 5698 5703 5707 5712 5715 5719
5492 5489 5486 5484 5481 5479 5477 5475 5473 5471 5469 5468 5467 5465 5463 5462 5461 5459 5458 5457 5457 5456 5455 5454 5453 5452 5452 5451 5449 5448 5447 5446 5446 5446 5447 5447 5448 5449 5449 5450 5451 5452 5452 5454 5455 5456 5458 5460 5462 5466 5469 5472 5475 5477 5480 5483 5487 5491 5496 5500 5504 5509 5514 5519 5525 5530 5536 5542 5549 5555 5562 5568 5574 5580 5585 5591 5596 5601 5607 5612 5617 5621 5626 5631 5636 5641 5645 5649 5653 5657 5662 5666 5670 5675 5679 5684 5689 5694 5699 5703 5707 5711 5714
5486 5483 5481 5478 5476 5473 5471 5469 5467 5466 5464 5462 5461 5459 5458 5457 5455 5454 5453 5452 5451 5451 5450 5449 5448 5447 5447 5447 5445 5444 5443 5442 5442 5442 5442 5442 5443 5444 5445 5446 5446 5446 5447 5448 5449 5450 5452 5454 5457 5460 5463 5466 5468 5470 5472 5476 5480 5484 5488 5492 5497 5502 5506 5511 5516 5522 5528 5535 5541 5547 5554 5560 5566 5572 5578 5583 5588 5594 5599 5605 5610 5615 5620 5625 5629 5634 5639 5643 5647 5652 5656 5661 5665 5670 5675 5680 5686 5691 5695 5699 5703 5707 5710
5481 5478 5475 5473 5470 5468 5466 5464 5462 5460 5458 5457 5455 5454 5452 5451 5450 5448 5447 5447 5446 5445 5445 5444 5443 5443 5442 5442 5441 5440 5439 5438 5438 5438 5438 5437 5438 5439 5440 5441 5441 5442 5442 5443 5444 5445 5446 5448 5451 5454 5457 5460 5462 5463 5466 5470 5473 5477 5482 5486 5490 5494 5498 5502 5507 5513 5520 5527 5533 5539 5546 5552 5558 5564 5570 5576 5581 5587 5592 5598 5603 5608 5613 5618 5623 5628 5632 5637 5641 5646 5651 5656 5660 5665 5671 5677 5682 5686 5690 5695 5698 5702 5706
5476 5472 5470 5467 5465 5462 5460 5458 5456 5454 5452 5451 5450 5448 5447 5445 5444 5442 5442 5441 5440 5439 5439 5439 5438 5438 5437 5437 5436 5435 5435 5434 5433 5433 5433 5433 5433 5434 5435 5436 5437 5438 5438 5438 5439 5439 5441 5443 5446 5448 5451 5453 5455 5457 5460 5463 5467 5471 5475 5479 5483 5487 5490 5495 5500 5506 5512 5519 5525 5531 5538 5544 5551 5557 5562 5568 5574 5580 5585 5591 5596 5602 5607 5612 5617 5622 5626 5631 5636 5641 5646 5651 5656 5661 5667 5672 5676 5681 5685 5689 5693 5697 5701
5470 5467 5464 5462 5459 5457 5454 5452 5450 5448 5447 5445 5443 5442 5441 5439 5438 5437 5436 5435 5434 5433 5433 5433 5432 5433 5432 5432 5431 5431 5430 5429 5429 5429 5429 5429 5429 5430 5430 5432 5433 5433 5433 5434 5435 5435 5436 5438 5441 5443 5445 5447 5449 5451 5454 5457 5461 5465 5469 5472 5476 5480 5483 5488 5493 5499 5505 5511 5517 5523 5530 5536 5542 5548 5555 5561 5567 5572 5578 5584 5590 5595 5600 5605 5610 5615 5619 5624 5630 5635 5641 5646 5651 5656 5661 5666 5670 5675 5679 5684 5688 5692 5695
5465 5462 5459 5456 5453 5451 5449 5446 5444 5442 5440 5438 5437 5436 5434 5433 5432 5430 5429 5428 5428 5427 5427 5426 5427 5427 5427 5427 5427 5426 5425 5425 5424 5424 5424 5424 5425 5425 5426 5427 5427 5427 5428 5431 5432 5431 5432 5432 5434 5437 5439 5441 5443 5445 5448 5451 5455 5459 5463 5467 5470 5473 5476 5481 5486 5492 5498 5504 5509 5515 5522 5528 5535 5541 5547 5553 5559 5565 5571 5577 5583 5588 5593 5598 5603 5608 5613 5618 5624 5630 5636 5641 5646 5651 5655 5660 5664 5668 5673 5678 5682 5686 5690
5461 5457 5454 5451 5448 5445 5443 5441 5438 5436 5434 5432 5430 5429 5427 5426 5425 5423 5422 5422 5421 5421 5420 5420 5420 5420 5421 5421 5421 5421 5421 5420 5420 5419 5419 5420 5420 5421 5421 5422 5422 5424 5425 5427 5427 5427 5427 5427 5429 5431 5433 5435 5438 5441 5442 5446 5449 5453 5457 5461 5463 5467 5470 5475 5480 5486 5491 5496 5501 5507 5514 5520 5527 5533 5540 5546 5552 5558 5564 5570 5576 5581 5586 5592 5597 5602 5608 5614 5619 5625 5630 5635 5640 5645 5649 5654 5658 5663 5667 5672 5677 5681 5684
5456 5452 5449 5446 5443 5440 5437 5435 5432 5430 5427 5425 5423 5422 5420 5419 5417 5416 5415 5415 5414 5413 5413 5413 5413 5413 5414 5414 5415 5416 5416 5415 5415 5415 5415 5415 5415 5416 5416 5417 5419 5420 5421 5421 5422 5422 5422 5423 5425 5427 5428 5430 5433 5435 5437 5440 5443 5447 5452 5455 5457 5460 5464 5469 5474 5479 5483 5488 5493 5499 5507 5512 5519 5526 5532 5538 5545 5551 5557 5563 5569 5574 5580 5585 5591 5596 5602 5608 5613 5619 5624 5629 5634 5639 5643 5648 5652 5657 5662 5667 5672 5675 5678
5452 5448 5445 5442 5438 5435 5432 5429 5426 5424 5421 5419 5417 5415 5413 5411 5410 5409 5408 5407 5406 5406 5406 5406 5406 5406 5407 5408 5409 5409 5410 5410 5410 5410 5410 5410 5411 5411 5412 5413 5413 5414 5415 5416 5417 5417 5418 5419 5422 5423 5423 5424 5427 5430 5431 5434 5438 5442 5446 5449 5451 5454 5458 5462 5467 5472 5476 5481 5487 5493 5500 5505 5512 5518 5524 5531 5537 5544 5550 5556 5562 5567 5573 5579 5585 5590 5596 5602 5607 5612 5618 5623 5628 5632 5637 5642 5647 5652 5657 5662 5666 5670 5673
5448 5445 5441 5437 5434 5430 5427 5424 5421 5418 5415 5412 5410 5408 5406 5404 5402 5401 5400 5399 5398 5398 5398 5398 5398 5399 5399 5400 5402 5403 5404 5404 5405 5405 5405 5406 5406 5406 5407 5407 5408 5409 5411 5411 5412 5414 5415 5416 5418 5418 5417 5420 5423 5425 5426 5430 5434 5437 5441 5443 5445 5448 5452 5457 5461 5466 5471 5476 5481 5487 5492 5497 5504 5510 5516 5523 5530 5537 5543 5549 5555 5561 5567 5573 5579 5584 5590 5596 5601 5607 5612 5617 5622 5627 5632 5637 5642 5647 5652 5656 5661 5665 5668
5444 5441 5437 5433 5429 5426 5422 5418 5415 5412 5408 5406 5403 5401 5398 5396 5394 5393 5392 5391 5390 5390 5390 5390 5390 5391 5392 5393 5394 5396 5397 5398 5399 5400 5401 5401 5401 5402 5402 5403 5404 5405 5406 5407 5408 5409 5410 5412 5413 5413 5415 5418 5419 5420 5422 5426 5429 5432 5435 5437 5439 5442 5447 5451 5456 5461 5466 5470 5475 5480 5484 5490 5496 5502 5509 5515 5522 5529 5536 5542 5548 5555 5561 5567 5572 5578 5584 5590 5595 5600 5605 5610 5616 5621 5626 5631 5636 5641 5646 5651 5656 5660 5663
5440 5436 5432 5428 5424 5420 5416 5412 5408 5404 5401 5398 5395 5392 5390 5387 5386 5384 5383 5382 5382 5381 5381 5381 5382 5383 5384 5385 5387 5388 5390 5392 5393 5394 5396 5396 5396 5397 5398 5398 5399 5400 5401 5402 5403 5404 5406 5407 5407 5409 5412 5414 5414 5415 5417 5420 5423 5426 5429 5431 5434 5437 5442 5446 5451 5455 5460 5464 5468 5473 5478 5483 5489 5495 5501 5508 5515 5522 5528 5535 5542 5548 5554 5560 5566 5572 5577 5582 5587 5593 5598 5604 5609 5614 5620 5626 5631 5635 5640 5645 5650 5654 5657
5435 5431 5427 5422 5418 5413 5409 5404 5400 5396 5392 5388 5385 5382 5380 5378 5376 5375 5374 5373 5373 5372 5372 5372 5373 5374 5375 5377 5379 5381 5382 5385 5387 5388 5390 5391 5391 5392 5393 5394 5394 5395 5396 5397 5398 5400 5401 5402 5404 5406 5408 5409 5410 5412 5414 5416 5418 5421 5424 5427 5429 5433 5437 5442 5446 5450 5455 5459 5463 5467 5472 5477 5482 5488 5494 5500 5507 5514 5521 5528 5535 5542 5547 5553 5559 5565 5570 5576 5580 5585 5591 5597 5602 5608 5614 5620 5625 5630 5634 5639 5644 5649 5652